Fort Knox, KY

7:43 AM EST on February 08, 2016 (GMT -0500)
Godman Army Air Field

Weather History for KFTK - February, 2014

Change the Weather History Date:

Wednesday, February 19, 2014

  Actual Average (KSDF) Record (KSDF)
Temperature  
Mean Temperature 50 °F 40 °F  
Max Temperature 56 °F 49 °F 74 °F (1939)
Min Temperature 43 °F 31 °F -3 °F (2015)
Degree Days  
Heating Degree Days 16 25  
Month to date heating degree days 518  
Since 1 July heating degree days 3027  
Cooling Degree Days 0 0  
Month to date cooling degree days 0  
Year to date cooling degree days 0  
Moisture  
Dew Point 41 °F    
Average Humidity 72    
Maximum Humidity 95    
Minimum Humidity 41    
Precipitation  
Precipitation 0.01 in 0.12 in 1.47 in (1882)
Month to date precipitation 2.15  
Year to date precipitation 5.39  
Snow  
Snow 0.00 in 0.20 in 9.00 in (1921)
Month to date snowfall 3.4  
Since 1 July snowfall 9.9  
Snow Depth -    
Sea Level Pressure  
Sea Level Pressure 29.90 in    
Wind  
Wind Speed 9 mph (SW)    
Max Wind Speed 14 mph    
Max Gust Speed 17 mph    
Visibility 10 miles    
Events Rain , Thunderstorm    
T = Trace of Precipitation, MM = Missing Value Source: NWS Daily Summary

Daily Weather History Graph

Daily Weather History Graph

Search for Another Location

Airport or City:

Trip Planner

Search our weather history database for the weather conditions in past years. The results will help you decide how hot, cold, wet, or windy it might be!

Date:

Astronomy

Feb. 19, 2014 Rise Set
Actual Time 7:28 AM EST 6:27 PM EST
Civil Twilight 7:02 AM EST 6:53 PM EST
Nautical Twilight 6:31 AM EST 7:24 PM EST
Astronomical Twilight 6:01 AM EST 7:54 PM EST
Moon 11:14 PM EST (2/19) 9:39 AM EST (2/19)
Length of Visible Light 11h 51m
Length of Day
10h 58m
Waning Gibbous, 80% of the Moon is Illuminated
Feb 19
Waning Gibbous
Feb 22
Last Quarter
Mar 1
New
Mar 8
First Quarter
Mar 16
Full

Hourly Weather History & Observations

Time (EST) Temp. Windchill Dew Point Humidity Pressure Visibility Wind Dir Wind Speed Gust Speed Precip Events Conditions
12:31 AM 51.8 °F - 41.0 °F 67% 29.80 in 10.0 mi South 9.2 mph - N/A Thunderstorm Thunderstorm
12:42 AM 51.8 °F - 44.6 °F 76% 29.80 in 10.0 mi South 13.8 mph - N/A Rain , Thunderstorm Light Thunderstorms and Rain
12:51 AM 51.8 °F - 46.4 °F 82% 29.79 in 10.0 mi SSW 10.4 mph - N/A Rain Light Rain
12:56 AM 51.8 °F - 46.4 °F 82% 29.79 in 10.0 mi SSW 9.2 mph - N/A   Mostly Cloudy
12:58 AM 51.8 °F - 46.4 °F 82% 29.80 in 10.0 mi SSW 10.4 mph - 0.00 in   Mostly Cloudy
1:12 AM 51.8 °F - 48.2 °F 88% 29.79 in 10.0 mi South 11.5 mph - N/A Rain Light Rain
1:16 AM 51.8 °F - 48.2 °F 88% 29.79 in 10.0 mi South 10.4 mph - N/A Rain , Thunderstorm Light Thunderstorms and Rain
1:31 AM 51.8 °F - 48.2 °F 88% 29.79 in 10.0 mi SSW 12.7 mph - N/A   Light Drizzle
1:36 AM 51.8 °F - 48.2 °F 88% 29.79 in 10.0 mi SSW 10.4 mph - N/A Rain Light Rain
1:38 AM 51.8 °F - 48.2 °F 88% 29.79 in 10.0 mi SW 8.1 mph - N/A   Overcast
1:58 AM 52.5 °F - 49.5 °F 89% 29.79 in 10.0 mi SW 9.2 mph - 0.00 in   Mostly Cloudy
2:08 AM 51.8 °F - 50.0 °F 94% 29.78 in 10.0 mi SW 10.4 mph - N/A   Mostly Cloudy
2:58 AM 53.8 °F - 50.9 °F 90% 29.78 in 10.0 mi SSW 10.4 mph - N/A   Overcast
3:58 AM 53.4 °F - 50.7 °F 91% 29.77 in 10.0 mi SW 9.2 mph - N/A   Clear
4:58 AM 51.1 °F - 49.1 °F 93% 29.78 in 10.0 mi SW 6.9 mph - N/A   Clear
5:58 AM 51.4 °F - 50.0 °F 95% 29.81 in 10.0 mi WSW 13.8 mph - N/A   Partly Cloudy
6:58 AM 50.5 °F - 47.5 °F 89% 29.83 in 10.0 mi West 13.8 mph - N/A   Clear
7:58 AM 47.7 °F - 43.2 °F 84% 29.88 in 10.0 mi West 8.1 mph - 0.01 in   Clear
8:58 AM 48.6 °F - 39.6 °F 71% 29.94 in 10.0 mi West 8.1 mph - N/A   Clear
9:58 AM 49.1 °F - 35.8 °F 60% 29.98 in 10.0 mi West 10.4 mph - N/A   Partly Cloudy
10:58 AM 51.1 °F - 36.9 °F 58% 30.01 in 10.0 mi West 11.5 mph - N/A   Clear
11:58 AM 51.3 °F - 36.3 °F 57% 30.02 in 10.0 mi WNW 10.4 mph - N/A   Clear
12:58 PM 52.9 °F - 34.9 °F 50% 30.02 in 10.0 mi WNW 8.1 mph - N/A   Clear
1:58 PM 55.0 °F - 34.9 °F 47% 30.00 in 10.0 mi SW 5.8 mph - N/A   Clear
2:58 PM 56.7 °F - 34.9 °F 44% 30.02 in 10.0 mi WSW 11.5 mph 17.3 mph N/A   Clear
3:58 PM 55.4 °F - 33.6 °F 44% 30.03 in 10.0 mi Variable 4.6 mph - N/A   Clear
4:58 PM 54.5 °F - 33.8 °F 46% 30.04 in 10.0 mi West 2.3 mph - N/A   Clear
5:58 PM 54.0 °F - 30.6 °F 41% 30.05 in 10.0 mi Calm Calm - N/A   Partly Cloudy
6:58 PM 48.9 °F - 35.2 °F 59% 30.05 in 10.0 mi East 2.3 mph - N/A   Clear
7:58 PM 46.8 °F - 33.8 °F 61% 30.03 in 10.0 mi ESE 5.8 mph - N/A   Partly Cloudy
8:58 PM 43.5 °F - 34.0 °F 69% 30.04 in 10.0 mi ENE 2.3 mph - N/A   Clear
9:58 PM 45.0 °F 41.8 °F 32.5 °F 62% 30.02 in 10.0 mi ENE 5.8 mph - N/A   Clear
10:58 PM 43.7 °F 39.1 °F 32.7 °F 65% 30.00 in 10.0 mi East 8.1 mph - N/A   Clear
11:58 PM 43.7 °F 39.7 °F 33.1 °F 66% 29.99 in 10.0 mi East 6.9 mph - N/A   Clear